Theta_e
340 342 344 350 350 350 350 351 350 349 350 350 349 349 348 347 346 345 345 344 343 344 341 339 339 339 342 343 345 345 345 346 346 345 346 345 345 345 345 344 344 345 345 344 344 344 344 343 342 343 345 345 344 344 343 343 344 344 343 343 343 342 343 342 342 342 343 342 343 343 342 343 344 343 343 342 340 339 337 337 338 335 332 336 338
339 343 345 347 350 350 350 351 350 350 349 349 348 349 348 346 346 346 346 345 344 342 341 342 341 340 340 342 343 345 344 343 343 344 345 345 343 345 345 344 344 343 343 343 342 342 342 341 341 341 343 343 343 343 342 342 343 343 342 343 343 342 341 341 341 342 342 342 342 342 343 343 343 344 343 343 342 340 338 336 337 332 330 337 337
342 344 345 347 349 350 350 350 349 349 351 350 350 349 347 346 346 346 346 345 343 342 341 340 341 339 337 341 342 342 341 342 342 341 345 342 341 342 343 342 343 342 342 342 342 341 341 341 340 339 342 342 342 342 341 341 342 342 342 342 342 342 342 341 341 341 342 343 343 342 342 343 342 342 342 341 341 340 338 338 337 337 333 337 335
342 343 344 346 348 350 351 350 349 350 349 350 349 348 347 347 347 347 346 345 343 341 340 340 339 338 338 338 341 339 340 338 340 341 340 339 339 340 340 340 341 341 340 340 339 340 339 338 338 337 339 341 341 340 340 341 340 341 341 341 341 341 341 341 340 340 340 340 340 339 336 335 339 342 342 342 341 340 339 338 338 338 338 338 337
342 342 343 345 346 349 350 350 349 350 349 350 349 347 347 347 347 347 345 344 342 341 341 339 338 340 339 339 338 339 337 338 338 338 338 339 337 339 339 339 339 339 338 339 338 338 338 337 337 336 336 339 339 338 339 339 339 340 340 340 340 340 340 339 340 341 339 340 339 336 330 332 335 341 342 342 341 338 337 337 338 337 337 337 337
341 342 343 344 345 347 349 350 349 350 350 349 348 348 348 348 348 346 344 343 342 342 341 340 340 339 338 338 336 337 337 338 338 338 338 337 338 339 339 339 338 338 337 337 337 337 337 336 335 335 334 337 338 338 338 338 338 338 338 338 339 339 338 338 340 341 340 338 337 329 331 331 333 338 342 342 340 339 338 337 337 338 338 337 336
341 343 344 344 344 346 349 349 349 350 350 349 349 348 349 348 347 346 346 344 344 342 340 339 338 337 338 338 336 336 337 337 337 337 337 339 339 339 338 337 336 336 336 334 334 335 335 335 334 334 336 336 338 338 338 337 338 337 338 338 338 338 338 338 339 340 338 332 327 327 329 332 333 335 342 341 341 340 340 340 339 338 338 337 336
342 343 343 343 344 347 348 349 349 349 349 349 349 348 348 348 347 347 346 344 342 340 340 338 337 338 339 338 338 336 338 338 337 336 337 340 338 337 337 336 335 333 334 335 335 334 334 335 335 336 336 336 335 337 337 337 337 337 338 337 337 337 337 337 339 340 336 328 326 327 328 327 330 334 341 340 340 340 340 340 337 336 336 336 335
341 343 343 343 344 346 347 348 349 349 349 349 349 349 348 348 347 346 346 344 342 340 339 339 339 338 338 337 337 337 337 336 336 336 336 336 336 336 337 336 335 335 335 336 336 335 336 335 335 335 336 336 336 336 336 336 336 337 337 336 336 336 335 336 337 335 330 327 327 327 327 328 328 329 338 340 340 340 340 339 339 338 337 335 335
341 342 342 342 343 345 346 347 349 349 350 349 349 348 349 348 347 346 345 344 343 342 341 340 337 338 337 336 338 336 336 335 335 336 335 335 336 336 335 334 335 335 335 335 336 335 335 334 335 337 336 336 336 336 336 336 336 336 336 335 336 334 335 334 333 332 326 328 329 327 330 336 330 331 336 339 340 337 335 336 336 335 335 335 334
340 341 341 342 342 344 346 348 348 349 349 350 349 349 348 348 347 346 345 344 342 341 340 338 337 337 337 338 337 337 336 336 335 335 335 335 335 335 335 335 335 335 334 334 334 335 335 336 336 336 335 335 336 335 335 336 335 336 336 335 335 334 336 331 328 324 327 329 330 330 337 338 326 328 337 338 339 338 338 337 336 336 336 335 335
339 340 340 341 344 343 345 346 348 349 349 348 348 348 348 347 346 345 345 343 342 341 340 338 338 337 336 338 337 337 336 336 337 336 334 335 335 335 335 335 335 334 334 335 335 334 334 335 336 335 335 335 335 334 334 335 336 336 335 334 335 334 333 330 322 321 322 327 328 328 329 329 327 333 337 337 338 339 338 338 338 337 337 336 335
338 339 339 340 342 343 344 345 346 348 349 348 348 348 347 347 346 345 344 343 341 341 340 338 338 338 338 337 336 337 334 336 336 335 334 335 335 334 334 334 334 335 334 334 334 333 334 334 334 334 334 335 335 334 334 335 335 335 335 334 334 334 332 329 320 319 320 323 327 327 327 328 329 339 337 337 338 338 337 337 337 338 337 337 336
336 337 338 339 340 344 342 343 345 346 347 348 348 348 347 346 345 343 343 342 341 341 339 337 337 339 338 336 337 337 336 336 336 334 335 335 334 334 334 334 334 334 334 334 334 334 334 333 334 334 334 334 334 334 334 334 335 335 335 334 334 333 329 325 325 317 319 319 326 326 327 329 328 338 338 338 337 337 336 336 336 337 337 336 335
335 336 337 338 340 341 344 341 343 343 345 345 346 346 347 345 344 342 343 342 341 341 340 338 338 339 337 336 337 336 336 335 335 336 337 337 335 334 334 334 334 334 334 334 333 333 334 332 333 334 333 333 333 333 334 334 335 336 335 335 334 332 328 319 319 316 318 320 320 327 325 326 340 338 338 338 337 336 335 335 337 337 337 335 335
336 336 337 338 339 340 341 343 339 340 340 341 342 343 345 345 344 343 342 342 341 341 340 337 338 339 337 338 338 337 336 335 337 336 337 337 335 334 333 334 334 334 334 334 334 334 333 333 333 333 333 332 332 332 332 333 334 336 335 334 333 331 328 324 315 314 315 316 316 324 323 325 338 337 337 337 337 336 335 335 335 336 335 335 334
336 336 336 337 338 339 339 340 339 338 338 338 339 341 343 344 343 343 343 343 342 342 341 339 339 340 339 338 339 339 338 336 340 337 336 338 336 336 336 334 333 334 334 334 334 333 333 333 334 333 332 332 332 332 331 332 332 334 335 333 332 329 327 324 316 313 314 318 320 318 321 323 335 335 335 336 336 336 336 335 334 334 335 335 335
335 336 335 337 338 339 339 338 338 337 337 337 337 338 340 342 342 342 342 343 342 342 341 341 340 341 339 338 338 339 339 338 338 337 335 336 335 333 335 336 334 334 333 333 333 333 333 332 333 333 332 332 331 331 331 330 331 333 332 331 329 327 325 324 313 313 313 322 314 319 320 334 335 334 334 334 334 336 336 335 335 334 334 334 335
334 335 336 337 338 339 339 338 337 337 336 335 335 337 337 339 339 340 341 341 341 340 339 339 339 339 339 337 337 339 337 337 336 335 334 334 333 331 333 335 333 334 334 333 333 332 333 333 333 334 332 332 331 331 331 332 333 332 331 328 327 324 323 318 312 311 313 313 314 314 313 331 333 334 334 335 334 334 335 335 335 335 334 335 335
332 334 335 337 338 338 339 338 337 337 336 335 335 335 335 335 336 337 338 338 338 338 336 336 335 335 335 334 335 334 336 334 335 333 332 333 334 328 330 333 334 334 334 333 333 333 332 333 332 332 333 332 332 331 332 333 333 332 330 327 325 323 314 310 310 311 311 312 317 316 323 330 332 332 333 333 334 334 334 335 336 335 335 335 334
331 332 334 336 337 337 338 338 337 337 336 336 335 335 335 333 333 334 334 334 335 336 334 331 330 330 329 329 332 331 328 331 333 329 330 329 327 326 328 332 334 336 336 334 333 334 333 333 332 332 332 332 334 333 332 333 333 331 329 326 323 314 311 309 312 313 313 313 317 316 324 329 332 333 333 333 333 333 334 334 335 335 335 335 335
330 330 332 335 336 336 337 337 337 336 337 336 336 336 335 333 334 333 333 333 333 333 333 334 337 330 327 328 329 329 327 328 329 333 328 329 326 325 327 330 332 333 335 336 336 336 334 333 333 332 332 332 332 326 326 329 330 330 327 324 319 315 312 313 312 313 314 314 316 317 325 329 333 334 334 335 335 334 334 334 334 335 336 336 335
331 330 330 333 335 336 337 337 337 337 336 336 337 336 335 334 333 333 333 331 335 337 336 336 334 333 332 332 330 328 327 326 327 329 328 325 327 325 327 329 331 332 334 334 335 336 336 334 333 333 333 333 328 321 320 320 321 327 325 322 317 316 314 313 313 313 313 314 314 320 325 329 332 333 334 335 336 335 334 334 334 334 336 336 336
333 331 330 333 334 335 336 338 338 338 337 336 336 335 335 334 333 333 333 334 336 337 338 338 338 338 336 334 331 329 327 326 331 333 334 328 326 324 325 327 329 329 331 332 332 333 334 334 334 333 333 328 323 322 323 322 322 322 322 321 320 320 317 316 314 314 314 315 315 321 326 330 331 333 334 335 336 336 334 334 334 334 334 335 335
335 336 334 333 333 334 336 336 337 338 337 336 336 336 335 335 334 333 333 335 336 337 338 339 339 338 337 334 332 330 327 326 326 327 327 327 325 324 324 325 326 326 327 326 326 327 329 324 326 327 322 321 320 321 321 321 322 323 324 325 325 324 322 321 319 315 314 314 315 321 324 328 331 333 334 335 335 336 335 335 334 334 334 335 335
333 334 335 335 334 334 336 336 337 337 337 337 336 335 334 334 333 333 332 335 335 336 337 338 338 338 337 335 332 329 327 326 325 326 327 326 325 324 323 324 324 324 325 325 323 323 323 321 322 323 321 321 321 321 321 321 321 321 324 324 324 324 323 321 319 318 316 315 315 321 323 325 328 332 333 334 335 336 336 336 336 335 335 335 335
332 333 335 337 337 336 336 337 337 337 337 336 336 335 335 334 333 332 332 333 335 335 336 336 337 337 337 336 333 330 327 326 325 325 326 326 326 325 323 323 323 324 323 323 322 321 321 321 320 321 321 321 321 321 321 321 321 320 322 323 324 324 322 321 319 318 317 315 316 319 323 326 329 332 332 333 334 336 337 337 336 336 336 336 336
332 333 334 335 335 336 337 337 337 337 337 337 336 336 335 333 332 331 331 331 333 334 335 335 336 335 336 336 332 331 329 327 327 326 326 325 326 326 324 322 322 323 323 322 321 320 320 320 320 319 320 320 320 320 321 321 321 319 318 320 323 323 321 320 319 317 316 316 316 318 321 325 328 330 333 332 333 335 336 337 337 337 337 337 336
331 332 333 334 335 336 337 337 337 336 337 337 337 337 336 334 332 331 331 329 331 332 333 334 334 334 334 335 333 331 329 328 328 327 326 325 326 325 324 323 323 322 322 321 321 320 319 319 319 319 319 319 318 319 319 320 320 319 318 318 319 321 320 320 318 317 317 317 317 318 320 322 326 329 331 333 334 335 335 337 338 337 338 338 337
332 333 333 334 335 336 336 337 337 337 337 337 338 337 336 334 333 332 332 329 330 331 331 331 332 331 331 332 333 333 331 329 329 328 327 326 325 325 324 324 323 323 322 321 321 320 320 319 319 319 319 318 318 319 318 319 319 319 318 317 317 318 319 318 318 317 317 317 318 317 318 320 323 327 329 330 332 334 335 336 336 337 338 338 338
331 332 333 333 334 334 335 336 337 336 338 337 337 337 337 336 334 333 332 331 331 330 330 330 330 330 330 331 331 331 331 330 329 329 328 327 326 325 325 324 324 323 323 322 322 322 321 320 320 319 319 319 319 319 318 319 319 319 318 317 317 317 317 317 317 317 316 317 317 317 317 319 321 323 327 329 331 332 333 334 336 336 338 339 339
329 331 332 333 333 334 335 335 336 336 336 337 337 337 336 336 334 334 333 332 331 331 330 329 328 329 329 329 330 331 330 329 328 329 328 327 327 326 325 324 324 324 323 323 322 322 322 321 320 320 319 319 320 319 319 319 319 319 318 317 316 315 315 315 316 316 316 316 316 317 317 318 319 321 323 327 329 330 331 332 334 335 337 337 337
330 331 332 332 332 333 334 334 335 335 336 337 337 337 337 337 335 334 333 333 332 331 330 329 329 329 328 328 329 329 329 329 328 327 326 327 327 326 325 324 324 323 323 323 323 321 321 320 319 319 319 318 318 318 317 317 318 318 317 317 316 316 316 315 315 315 316 316 316 317 317 317 317 318 320 321 324 327 330 331 332 332 335 336 337
329 330 330 331 332 333 334 335 334 334 335 337 336 336 336 336 335 335 333 333 332 331 330 330 329 329 328 328 328 328 328 328 327 326 325 324 325 325 325 325 324 323 322 322 321 320 320 319 319 318 317 317 316 316 316 316 315 315 315 316 315 316 316 316 316 316 316 316 316 316 317 317 317 317 317 319 320 323 326 329 330 331 331 333 335
328 328 329 330 331 332 333 334 333 333 333 335 334 335 335 335 334 334 333 333 333 332 332 331 330 329 328 327 327 327 327 328 327 326 324 324 323 323 324 325 324 323 322 321 321 320 320 319 318 317 317 316 316 316 316 316 315 315 315 315 315 316 315 316 316 316 316 317 317 317 317 317 318 318 318 317 318 319 322 325 328 330 331 331 332
328 329 329 329 330 331 331 332 332 332 332 334 334 335 334 334 334 331 333 333 332 332 332 332 332 331 329 327 326 326 327 327 327 326 325 324 323 323 323 323 323 323 323 322 321 320 319 318 318 318 316 316 315 316 314 315 314 315 315 315 315 315 315 316 316 316 316 316 316 317 317 318 318 318 316 318 318 318 320 322 325 328 329 330 331
329 329 329 328 329 330 329 331 331 332 332 333 334 334 334 333 333 333 333 332 332 332 332 332 332 332 331 329 327 325 325 326 326 325 325 324 323 323 323 323 322 322 322 322 321 321 320 319 318 317 318 317 315 315 314 314 314 314 315 314 315 315 315 316 316 317 317 316 316 317 317 317 317 314 318 318 318 318 318 319 322 325 326 327 329
329 329 330 329 329 330 330 330 331 332 333 332 333 333 333 333 332 332 329 331 332 332 332 331 332 332 332 331 329 326 325 325 326 325 325 324 324 323 322 322 322 322 322 322 322 322 321 320 320 318 317 317 316 315 315 314 314 315 314 315 315 315 316 316 317 315 316 317 317 317 317 317 317 317 317 318 318 318 318 318 319 320 321 321 324
330 330 330 330 330 330 329 328 329 331 331 332 331 332 332 331 330 330 329 330 330 331 331 331 331 332 332 332 331 329 325 325 325 325 325 324 323 323 323 321 321 322 321 321 321 321 320 320 320 319 317 317 318 317 316 315 315 314 315 315 315 316 316 317 316 316 317 317 317 317 318 317 317 317 317 317 318 318 318 318 318 318 318 318 321
330 329 329 330 329 329 329 329 329 330 331 331 330 330 329 329 328 327 327 327 329 329 330 331 331 331 331 331 331 331 329 326 326 325 325 324 324 323 322 321 321 321 320 320 320 320 320 319 318 318 318 316 316 316 315 314 313 313 313 315 315 316 316 316 316 316 317 317 317 317 317 317 317 317 317 318 317 317 317 317 316 318 318 318 318
329 329 329 329 329 329 328 328 329 329 329 329 328 328 327 327 328 328 328 329 328 328 328 329 330 331 331 331 331 331 330 328 325 326 326 323 325 324 323 322 321 321 321 321 321 320 320 320 320 318 318 317 317 316 315 314 313 314 315 313 315 316 315 315 316 317 317 318 318 317 317 316 317 317 317 317 317 317 317 317 317 318 318 318 318
328 329 328 329 330 330 329 329 329 329 329 329 329 328 329 329 328 328 328 328 327 326 327 328 329 330 330 330 330 330 330 329 326 326 326 326 325 324 323 323 322 321 321 321 320 318 319 319 319 318 317 318 319 318 316 314 312 312 311 310 310 314 315 315 315 316 317 318 318 317 317 317 317 317 317 316 316 316 317 317 317 317 317 317 318
328 328 329 329 329 329 330 329 329 329 329 329 329 328 329 329 329 328 328 327 328 328 328 328 328 328 329 329 329 330 329 329 328 326 326 326 326 325 324 324 323 322 320 320 320 319 319 319 319 319 318 315 317 318 316 317 316 309 309 308 309 305 305 306 312 314 316 317 317 317 317 317 317 317 317 316 316 316 316 316 316 316 317 316 317
327 328 328 328 329 329 330 329 329 329 329 329 327 329 329 329 329 324 323 326 324 325 325 325 326 326 326 328 328 329 329 329 328 327 326 326 326 326 326 325 324 324 323 322 321 320 320 320 319 319 319 317 315 316 316 316 317 312 307 308 304 300 305 305 301 307 311 314 315 315 316 316 317 317 316 316 316 315 316 315 315 316 316 316 316
326 327 328 328 329 329 330 330 330 329 330 329 328 329 327 326 326 320 319 320 319 319 320 323 324 325 325 326 327 328 328 328 328 327 325 326 326 326 326 325 325 325 324 323 323 322 321 321 321 319 318 318 317 316 313 316 316 318 315 302 302 300 304 303 303 306 303 308 310 314 314 314 315 315 315 315 314 315 315 315 315 315 315 316 316
325 327 328 329 329 330 330 330 330 330 330 330 329 328 326 326 324 323 321 321 321 320 320 322 323 323 324 327 327 327 327 327 328 327 326 325 326 326 326 325 325 325 324 324 324 323 322 322 321 320 319 319 319 317 315 312 316 316 318 318 312 305 301 298 306 304 304 307 309 308 310 312 313 313 313 313 313 314 314 315 315 315 315 315 316
324 327 328 328 329 330 330 330 330 330 330 330 329 327 327 326 325 325 324 323 322 322 324 324 324 325 325 325 326 326 326 326 326 327 327 325 325 326 326 325 325 325 324 324 323 323 323 323 322 321 320 319 318 317 317 315 309 314 316 317 317 315 306 308 306 301 307 305 303 304 308 308 311 312 312 313 313 313 314 314 314 315 315 315 315
323 325 326 327 328 328 329 329 329 328 330 330 329 328 327 326 325 325 324 324 323 323 324 324 324 324 324 324 324 325 325 326 326 326 326 325 324 325 325 325 325 325 323 323 324 324 323 323 322 322 321 320 319 317 317 315 314 314 313 314 315 315 315 313 311 309 308 307 311 309 311 311 309 311 312 312 312 313 314 314 314 315 315 315 315
322 323 324 326 327 328 328 328 328 328 329 329 328 328 328 327 326 326 324 324 325 324 324 322 322 322 322 323 323 324 324 325 325 325 325 326 323 324 325 325 324 324 322 323 323 323 323 322 321 321 321 321 320 319 318 317 315 316 310 311 313 314 314 314 314 311 310 309 310 312 313 307 308 310 311 312 313 314 314 315 315 315 315 315 315
321 322 323 324 325 326 326 326 327 328 328 328 328 328 328 327 326 325 324 324 324 324 323 321 321 322 322 322 322 323 323 323 324 325 325 325 325 324 324 324 324 324 322 323 323 323 322 322 322 322 321 320 321 319 318 319 318 317 316 313 310 309 310 311 312 313 313 313 309 311 312 312 311 311 311 309 310 312 314 315 315 315 316 316 316
319 319 319 320 321 323 323 323 326 327 327 328 327 327 327 327 326 326 325 324 324 324 322 321 320 320 321 321 322 322 323 323 323 323 324 325 325 324 323 324 324 323 322 323 323 323 323 322 322 321 321 321 321 320 318 318 319 318 317 316 315 314 313 311 311 311 312 311 311 311 312 313 312 312 315 310 311 313 313 314 314 314 315 317 317
Wind_Speed
11 13 11 15 16 17 17 17 18 18 18 18 19 18 16 17 16 15 15 15 14 13 13 12 11 9 10 11 14 13 14 14 14 14 14 15 15 15 16 15 15 15 15 15 14 15 16 15 14 14 15 15 15 15 15 15 15 15 14 14 15 15 15 15 13 11 10 14 14 14 14 14 16 15 15 15 15 15 14 14 10 7 5 10 13
16 13 11 12 17 16 18 17 18 18 19 18 18 18 17 17 16 15 15 15 14 14 13 13 13 11 10 11 11 14 12 14 13 14 14 15 14 14 15 14 14 13 13 12 13 13 14 13 13 12 13 14 14 15 14 13 13 14 14 13 14 14 14 14 13 11 10 12 13 14 14 15 15 15 15 15 15 15 13 14 13 5 4 12 13
12 12 10 12 17 16 17 18 18 19 19 19 19 18 17 17 16 16 15 15 15 14 13 13 14 12 10 11 12 11 11 12 14 11 14 13 12 13 13 13 13 12 12 12 12 13 13 12 12 12 13 13 14 14 13 12 12 12 13 13 12 12 12 13 13 12 11 11 12 13 13 15 15 14 14 14 15 14 12 14 13 10 7 13 11
13 10 10 13 16 15 16 18 18 19 19 19 19 18 17 17 17 16 16 15 15 14 12 13 12 13 11 11 11 9 10 9 9 14 11 11 12 12 12 12 12 11 11 11 11 11 12 11 11 10 12 13 13 12 12 11 11 11 12 12 11 10 10 8 7 7 8 10 10 8 4 5 8 14 14 14 14 14 11 13 13 12 13 12 13
12 10 10 11 12 14 16 17 19 19 19 20 19 18 18 17 17 17 16 16 15 14 14 13 13 13 14 12 12 11 11 10 9 7 11 12 11 12 12 11 11 10 10 10 10 11 11 11 11 11 10 12 13 11 10 10 10 10 11 10 10 9 9 8 8 7 7 8 8 6 3 3 5 12 13 14 14 12 12 12 12 12 11 12 11
11 9 10 10 10 12 16 16 19 20 20 20 19 18 18 17 17 17 16 16 15 14 14 14 14 14 13 13 11 11 11 11 10 11 11 11 13 12 12 12 11 10 10 10 11 11 11 10 11 10 11 11 11 9 9 9 9 10 10 10 9 9 8 9 10 9 8 8 7 4 4 3 3 5 13 13 13 10 12 12 12 11 11 11 11
13 9 9 10 9 10 15 17 19 20 20 19 19 18 18 17 17 18 17 17 14 13 13 13 12 12 14 13 12 11 11 11 11 11 11 14 13 12 11 11 10 10 10 9 10 11 11 11 10 11 11 10 10 9 8 8 8 9 10 10 10 10 11 10 8 8 7 5 4 4 4 3 3 2 11 11 12 11 11 12 12 12 11 11 10
10 9 9 8 8 12 15 17 18 20 21 19 19 18 18 17 17 17 18 16 14 14 14 13 12 12 12 13 13 13 13 13 12 10 12 14 13 13 12 12 11 10 11 12 12 11 11 11 11 11 11 10 10 8 7 7 8 9 9 10 11 11 11 10 7 7 8 4 3 4 3 2 2 2 8 9 10 10 10 11 11 12 11 11 9
11 10 9 8 8 15 15 16 18 20 20 19 19 19 18 18 18 17 17 16 15 14 14 14 12 13 13 12 13 13 12 11 12 10 10 11 12 12 12 12 12 12 13 12 12 12 12 12 12 11 11 10 9 7 7 6 7 8 9 9 10 12 12 11 8 9 4 3 3 4 3 3 3 2 6 8 9 10 10 8 8 11 11 10 10
10 10 9 8 8 15 15 16 17 19 20 19 19 19 19 18 17 16 16 16 15 14 14 13 11 12 13 12 12 12 12 11 11 11 11 11 11 11 12 12 12 11 12 13 12 12 11 11 12 11 10 9 8 7 6 6 6 7 8 9 10 11 11 11 10 7 4 3 4 4 3 5 3 3 5 7 8 9 10 7 5 4 5 9 10
11 10 9 8 9 14 15 16 17 18 20 19 19 18 18 18 17 16 16 15 14 14 13 13 12 13 13 13 12 12 12 12 12 10 11 11 10 12 12 12 12 10 12 12 12 12 12 11 11 11 10 9 8 7 5 5 5 6 8 8 10 10 10 10 8 4 4 4 4 3 4 7 3 2 6 8 8 8 7 8 7 7 7 7 8
11 9 9 7 11 15 15 15 16 17 18 19 18 18 18 17 17 17 15 15 14 14 13 14 15 14 13 13 12 12 11 12 12 12 12 11 11 10 12 12 12 10 10 11 11 11 11 11 10 10 10 9 8 6 5 4 4 5 6 7 8 9 9 9 6 5 3 3 3 3 2 3 4 4 7 7 7 8 8 8 7 7 7 6 6
11 9 9 7 8 13 14 15 15 15 16 16 17 17 17 17 16 16 15 14 15 14 13 13 13 14 14 12 12 13 12 12 12 10 10 12 11 11 10 12 11 11 11 11 11 11 10 10 9 9 9 8 7 6 5 3 3 4 5 6 7 8 7 8 4 4 3 2 3 2 2 1 2 5 7 7 6 6 5 4 5 7 7 6 6
11 10 9 8 7 12 14 14 14 15 15 15 15 15 16 17 15 15 15 14 14 14 13 12 13 14 14 13 13 13 13 12 12 11 10 11 11 11 11 11 11 12 11 11 11 10 10 9 9 8 7 7 6 6 5 4 2 3 4 6 7 7 7 5 5 4 4 2 0 3 2 0 0 5 5 4 5 4 4 4 4 4 5 6 6
13 12 10 8 7 7 13 13 14 14 14 14 14 14 15 15 14 15 15 14 13 14 13 12 13 14 13 13 14 13 11 12 13 10 9 10 12 11 10 11 10 10 11 10 9 9 9 9 9 8 7 6 5 5 5 4 2 2 4 5 6 6 7 3 3 3 4 2 0 1 1 1 4 4 4 4 3 3 4 3 4 4 4 3 4
12 12 11 9 7 6 7 10 12 12 12 12 12 13 13 13 13 13 15 14 14 14 13 13 13 13 13 11 12 14 13 10 11 9 4 5 9 10 9 9 10 9 10 10 10 10 9 8 8 7 7 6 5 4 4 3 1 1 3 5 5 5 6 4 3 3 3 3 1 1 2 2 5 5 5 4 4 4 4 5 4 4 4 4 4
11 11 11 10 9 6 6 6 7 10 10 11 12 12 12 12 12 13 13 13 13 13 13 13 13 13 12 8 7 10 11 11 7 11 7 8 8 9 9 10 10 9 9 9 9 9 9 9 8 7 6 6 5 5 3 3 0 1 3 4 4 5 5 5 3 2 2 2 1 1 4 4 4 5 5 5 5 5 5 5 5 5 6 5 5
10 11 12 11 10 8 7 6 6 6 6 8 11 11 11 11 11 9 13 12 12 11 11 11 10 9 12 9 8 8 9 10 8 8 8 7 6 5 5 8 10 9 8 8 9 9 8 8 8 8 7 6 5 5 4 3 3 2 1 2 2 4 4 4 2 1 2 1 1 2 3 5 7 7 6 7 6 7 7 8 7 7 7 7 7
9 10 10 12 11 10 9 7 6 5 6 6 5 8 11 11 11 8 12 11 11 11 10 9 9 8 10 11 9 8 10 9 9 8 8 7 6 6 4 5 9 10 11 9 9 9 9 7 7 9 7 7 6 5 5 5 5 4 3 1 2 2 4 3 3 2 2 3 1 2 3 8 8 8 8 8 8 8 9 9 9 9 8 8 8
9 9 10 10 11 11 9 8 7 7 6 6 6 6 9 11 11 10 11 10 10 11 9 8 8 7 8 10 10 7 8 8 10 8 9 8 8 6 6 6 9 9 9 10 9 8 9 9 7 8 8 8 8 7 6 4 6 5 4 3 3 4 2 3 3 4 3 4 3 3 5 9 11 10 10 10 10 10 10 10 11 11 11 10 10
7 9 9 9 11 12 12 9 9 9 8 7 6 6 7 10 9 10 10 9 9 11 10 8 7 6 7 7 7 5 4 5 8 6 9 6 8 9 8 8 7 5 7 8 9 9 10 10 9 9 9 9 7 7 5 5 6 6 5 5 5 2 3 3 4 4 4 4 4 5 8 9 11 12 12 12 12 12 11 12 13 12 12 12 12
9 9 8 10 9 10 12 12 10 11 9 8 6 6 6 8 6 5 5 7 7 8 8 5 5 3 6 5 4 4 4 4 5 6 6 6 7 10 9 10 9 7 6 7 9 9 10 11 11 11 11 10 8 5 5 6 8 8 7 8 4 3 4 4 4 5 5 5 4 6 10 10 12 14 14 13 13 13 12 12 13 14 14 14 13
9 8 9 11 10 9 9 11 11 11 11 9 7 7 7 6 7 7 6 6 6 7 6 6 5 5 5 5 5 5 4 4 5 6 6 9 9 10 11 11 11 10 10 10 8 8 9 11 12 12 11 11 7 5 4 3 4 8 8 5 3 4 4 4 5 5 6 6 5 8 11 11 12 14 14 14 14 14 13 13 13 14 14 14 15
12 11 11 10 11 10 11 10 10 10 10 8 7 6 6 6 6 7 6 6 7 6 6 7 6 6 6 5 5 5 5 5 6 10 9 7 7 11 12 13 13 12 11 9 10 9 10 10 9 8 7 5 5 5 4 4 4 4 4 4 4 4 4 4 5 6 6 6 6 10 12 12 13 15 16 16 15 15 14 14 14 14 15 15 15
11 10 9 10 12 11 11 10 10 10 10 8 7 7 6 6 6 6 7 6 6 7 7 7 7 7 7 6 6 6 6 5 6 5 6 6 6 6 6 6 6 6 9 6 6 6 7 5 5 6 4 4 4 5 4 4 4 4 4 4 5 5 5 5 6 6 6 7 7 10 12 13 15 16 17 17 17 17 16 15 15 15 16 16 16
8 9 11 11 12 11 12 10 11 10 11 9 8 8 8 7 7 6 6 6 6 7 7 7 7 7 6 6 6 6 6 6 5 6 6 6 6 6 7 6 6 7 6 6 5 5 5 5 5 6 6 4 5 5 5 6 6 5 5 5 6 6 6 6 6 6 7 7 7 10 11 13 15 17 18 18 18 18 18 17 17 17 17 17 17
9 11 10 9 11 11 11 10 11 10 11 9 8 8 8 8 8 7 7 7 8 8 9 8 7 7 7 7 7 6 6 6 6 6 7 6 7 6 7 6 7 7 6 6 6 5 5 6 6 6 6 5 5 5 5 6 6 6 6 6 6 7 7 7 7 7 7 7 7 12 11 14 15 17 19 18 19 19 19 18 18 18 18 18 18
10 10 10 10 10 12 12 12 11 11 10 10 9 8 8 8 8 8 8 8 8 9 8 8 8 9 9 8 8 7 7 7 7 6 7 6 7 7 6 6 6 6 6 6 7 6 6 6 6 5 5 5 5 5 5 6 6 6 6 6 7 7 7 7 7 8 7 7 7 10 12 12 14 15 17 19 20 20 20 20 20 19 20 20 19
11 11 10 10 12 11 12 13 12 12 10 10 10 8 8 8 8 8 8 8 8 8 8 8 8 8 8 9 9 9 8 8 8 7 6 7 7 7 7 7 7 7 6 6 6 6 6 6 6 6 5 6 6 6 6 6 6 6 7 7 7 7 7 8 8 8 8 7 7 8 13 13 12 13 15 17 20 21 21 21 21 21 21 21 22
13 12 11 11 10 11 12 14 13 12 11 10 9 9 9 9 9 9 9 8 8 8 8 7 8 7 7 8 8 9 8 8 8 6 7 7 7 7 8 8 7 7 6 7 6 6 7 6 6 6 6 6 6 7 6 7 7 7 7 8 8 8 7 8 8 8 8 7 7 8 12 14 14 12 14 16 18 20 22 22 22 23 23 23 23
11 12 11 11 10 11 12 13 12 11 10 11 10 10 9 9 9 9 8 8 9 8 7 8 8 8 8 9 8 9 8 8 8 8 7 7 7 8 8 7 7 7 6 7 6 7 7 7 7 7 7 7 8 7 7 8 8 8 8 8 8 7 7 7 7 7 7 7 7 7 8 13 14 15 14 17 19 20 21 22 24 25 24 24 24
12 13 11 10 10 13 13 13 12 11 11 11 10 10 10 10 9 9 9 9 9 8 8 8 8 8 8 8 9 9 8 8 8 8 8 8 8 8 7 7 7 6 6 7 7 7 7 7 7 7 7 7 8 7 7 8 8 8 7 8 7 7 6 6 7 7 7 7 7 7 7 8 12 15 16 17 18 19 20 21 23 24 26 26 27
10 12 11 11 13 13 13 13 12 12 13 13 11 10 10 10 9 9 9 9 9 8 9 8 8 8 8 9 9 9 9 9 8 9 8 8 8 8 8 8 7 7 7 8 9 7 6 6 6 6 6 6 6 7 6 7 7 7 7 7 7 7 7 6 7 6 7 7 7 7 7 7 7 11 15 17 18 18 20 21 22 23 25 27 28
10 9 10 12 11 9 9 9 11 13 14 11 10 10 10 9 9 9 9 9 9 9 9 8 8 8 8 9 9 9 9 9 9 8 8 8 8 8 8 8 7 7 8 7 7 6 7 7 8 7 7 7 8 7 7 7 7 6 6 6 6 7 6 7 7 7 7 7 7 7 7 7 7 8 9 14 18 18 20 21 23 23 24 26 27
9 10 14 14 12 11 10 9 11 12 12 12 12 11 10 9 9 9 8 9 9 9 9 8 8 8 8 8 9 9 9 10 10 9 9 8 8 7 8 8 7 7 7 7 8 7 7 8 7 8 7 7 7 7 7 8 7 8 7 7 7 7 6 8 7 7 7 7 7 8 8 8 8 8 9 8 12 18 19 20 22 24 25 25 25
14 13 12 12 13 12 11 11 10 12 12 12 11 11 10 9 9 8 8 8 8 8 8 8 8 8 8 8 9 10 10 10 10 9 9 8 8 8 7 7 7 7 7 7 7 8 7 7 7 7 7 7 6 8 6 7 6 7 6 7 7 7 8 7 8 8 8 7 8 9 8 9 9 9 9 9 9 11 18 18 20 23 23 24 25
14 12 13 12 13 14 14 14 14 15 14 13 11 9 9 9 9 9 8 8 8 8 8 7 7 8 7 8 8 8 9 10 10 9 9 9 8 8 7 7 6 7 7 7 8 7 7 7 6 7 6 7 7 8 6 6 7 7 7 7 7 7 8 8 9 8 7 9 10 9 9 10 10 11 10 10 10 10 13 18 19 20 21 21 22
13 13 13 14 15 13 13 14 12 13 12 12 12 11 9 9 7 7 7 8 9 8 7 7 8 8 8 9 8 8 8 8 9 9 8 8 7 8 6 7 7 7 7 6 7 6 6 7 8 6 6 6 7 7 7 6 6 7 7 8 8 7 9 9 9 8 9 11 10 11 10 10 10 11 10 11 10 10 10 13 18 20 21 21 21
11 13 13 13 11 12 11 12 12 12 12 11 10 9 7 7 6 6 7 8 7 8 8 8 9 8 9 9 9 9 9 9 9 9 9 8 7 7 7 6 7 7 7 7 7 7 7 6 8 7 5 7 8 7 7 6 7 7 8 9 8 9 8 8 8 9 10 12 12 12 9 11 9 11 11 11 10 10 10 9 8 9 12 19 20
11 11 12 12 12 11 11 11 12 12 10 9 8 8 7 8 9 6 7 9 10 9 9 10 8 9 10 10 10 10 9 9 9 8 9 9 8 7 7 6 7 7 8 8 8 7 8 7 8 7 7 6 6 6 5 5 5 7 9 8 8 8 10 9 10 11 11 12 11 9 11 10 10 11 11 10 9 10 10 10 9 9 9 12 17
11 11 12 13 14 14 12 14 12 11 11 11 10 11 11 9 8 11 12 11 11 10 9 9 10 10 11 11 10 10 10 9 9 9 10 9 9 7 7 7 7 8 8 10 8 8 8 8 7 6 9 9 8 6 5 3 4 9 7 8 10 9 12 10 13 13 13 11 9 10 10 9 11 11 10 7 9 9 9 9 9 9 9 8 9
12 13 14 16 15 13 14 14 10 12 13 13 12 12 12 13 14 14 13 11 10 10 12 11 11 10 10 10 10 10 11 10 9 9 10 10 9 8 8 9 8 8 9 8 7 7 8 7 6 6 6 9 10 6 6 5 5 9 8 7 6 8 10 12 14 15 13 12 11 10 11 10 12 10 7 7 8 8 9 9 8 8 8 8 8
17 17 17 15 12 12 14 12 12 13 13 13 12 13 12 11 11 9 10 8 7 8 8 8 8 9 10 11 11 11 12 11 11 10 10 10 11 10 10 9 9 9 8 9 8 9 9 10 9 10 7 5 8 5 6 10 9 2 1 3 8 7 4 3 7 10 11 11 9 11 11 10 13 9 8 7 7 7 7 7 8 8 8 8 8
12 12 13 14 13 13 13 13 14 14 12 13 15 14 12 10 9 4 3 5 5 5 6 6 7 9 11 11 11 11 12 12 11 11 10 10 11 11 10 9 10 9 10 10 9 11 9 9 9 10 8 9 7 7 6 7 8 5 5 7 3 1 10 4 5 6 8 10 8 10 7 9 9 9 7 8 7 7 7 6 8 8 8 8 8
14 15 15 14 12 17 17 17 15 15 13 14 15 11 8 6 6 2 2 3 1 3 5 9 10 10 10 11 14 13 13 12 11 12 11 12 11 11 11 11 10 10 9 10 10 11 10 9 10 10 10 11 10 6 4 8 9 9 8 1 1 1 7 5 6 7 2 1 5 8 9 9 8 8 6 7 5 6 7 7 7 7 8 8 8
14 14 15 17 16 16 16 15 12 12 13 14 14 10 11 11 10 10 9 8 9 8 11 15 13 13 16 15 12 12 12 12 11 11 12 11 12 12 11 11 10 9 9 10 9 8 10 11 10 9 10 10 10 7 8 4 9 10 11 11 6 5 3 3 6 7 4 5 6 1 4 5 7 8 6 6 7 7 6 8 7 8 7 7 8
15 14 14 15 17 16 15 15 14 13 13 12 12 11 10 10 14 15 15 14 14 13 14 11 10 11 10 10 12 10 11 12 12 11 11 12 11 11 11 11 10 9 8 8 10 11 10 9 7 9 10 7 7 11 12 5 2 7 8 11 11 9 2 4 7 4 14 3 2 2 4 4 6 6 7 7 7 7 7 7 8 8 7 7 7
15 13 12 12 15 16 14 14 12 12 11 11 12 13 13 13 14 14 13 12 13 15 14 12 9 8 9 11 8 9 10 11 11 11 11 11 11 11 11 10 10 9 8 10 11 9 8 7 8 9 8 8 9 11 11 6 8 6 6 10 10 9 9 7 7 8 8 12 19 4 6 6 5 7 6 7 7 7 8 6 7 7 7 7 7
14 14 13 14 15 15 14 12 13 12 11 13 14 16 15 15 15 14 13 12 13 13 8 6 7 8 9 8 8 9 9 10 11 11 11 11 11 11 10 10 10 10 9 9 10 9 10 9 9 9 9 9 9 9 8 9 7 9 4 7 7 9 7 8 8 6 7 9 15 16 15 3 4 6 6 5 6 6 6 7 7 7 6 7 7
13 12 12 12 12 11 12 13 14 13 13 14 15 16 17 14 13 13 15 14 12 11 8 7 8 8 10 10 9 9 9 8 9 10 11 11 11 11 10 11 11 10 9 11 10 10 10 10 10 9 9 10 8 8 11 9 8 7 8 6 6 5 5 6 7 8 8 11 13 14 14 15 15 8 5 4 5 7 7 7 8 6 7 8 7
9 9 9 9 9 10 12 13 16 14 14 15 15 16 16 14 14 15 16 16 15 13 11 10 8 7 10 10 9 9 8 9 8 9 10 11 11 10 10 11 9 9 10 10 11 11 10 9 8 8 9 11 9 9 10 10 9 9 9 9 10 9 10 9 8 7 9 8 9 11 13 14 12 14 13 2 5 7 7 7 7 6 7 8 7
Wind_Direction
176 158 165 167 164 162 159 157 156 156 153 152 147 146 146 140 136 136 134 131 128 126 122 123 119 119 117 114 119 118 115 117 120 114 116 110 103 105 107 104 113 116 111 108 103 100 97 97 97 91 85 85 83 79 79 86 89 91 87 83 82 86 84 82 78 69 74 95 100 96 92 91 89 86 85 85 82 80 76 71 66 67 61 80 82
165 160 160 163 160 163 161 158 156 155 153 151 148 146 146 141 140 140 137 135 132 130 133 130 126 126 130 124 118 120 122 111 105 119 117 101 94 92 90 93 95 96 98 98 101 101 99 94 96 99 91 90 85 80 82 88 91 89 88 86 82 82 87 90 87 80 82 92 96 96 93 92 91 88 88 87 87 85 83 80 75 63 74 84 83
144 153 157 157 158 165 161 160 157 155 153 153 150 148 147 144 143 140 139 136 135 135 138 133 124 123 135 132 132 113 103 117 121 118 112 105 103 101 97 95 96 98 102 104 102 101 101 104 105 105 96 94 89 86 86 88 89 87 84 82 81 81 81 83 80 78 77 75 84 90 91 92 91 90 89 88 89 87 89 88 87 85 84 83 79
146 153 152 153 161 163 162 161 157 155 153 151 150 149 147 146 144 142 140 139 140 139 137 133 131 130 137 138 129 109 122 96 123 133 124 118 114 113 109 105 104 104 110 115 111 104 102 103 104 114 106 95 95 92 88 84 84 85 81 81 80 78 77 72 65 64 75 79 74 61 56 82 91 95 92 91 90 87 85 87 89 89 87 87 87
146 150 150 153 161 163 164 161 158 155 154 152 152 151 149 147 145 144 141 141 142 141 140 139 138 141 138 139 140 136 138 133 120 125 133 126 124 113 106 103 103 104 108 118 117 109 103 105 109 112 121 103 95 94 85 82 84 83 78 72 69 70 67 60 54 81 101 93 82 68 56 69 89 93 94 94 93 96 92 88 87 87 88 88 90
147 149 151 154 158 165 162 161 158 157 155 154 152 153 150 149 147 145 142 143 143 145 146 142 144 143 137 134 139 142 137 138 138 132 128 128 116 117 119 118 116 115 122 118 119 115 117 111 115 122 120 115 106 92 84 78 76 73 68 63 59 56 52 43 48 76 109 93 81 74 65 56 64 91 100 98 97 97 96 96 93 90 89 86 86
145 150 153 154 156 162 159 161 158 157 156 155 154 153 153 151 149 146 145 145 146 147 145 145 149 144 140 141 141 143 142 138 132 138 150 128 123 121 122 118 122 118 119 121 120 118 118 118 120 122 118 123 108 94 85 75 68 63 58 51 45 39 30 25 42 93 101 90 90 87 75 76 78 94 105 102 99 99 99 98 95 93 94 92 89
143 149 153 153 154 160 157 161 159 158 158 155 156 156 154 152 151 149 148 146 148 147 146 147 151 147 146 145 144 151 151 142 139 147 139 127 128 129 124 121 118 123 130 127 122 125 122 127 129 123 124 123 124 98 87 75 65 58 53 48 42 35 24 23 48 90 105 105 114 103 82 50 35 25 103 106 100 96 97 100 101 100 97 93 88
147 148 149 149 157 157 157 160 161 160 158 157 158 157 156 154 152 152 149 149 149 150 150 152 157 151 146 149 151 149 143 143 142 143 144 136 130 130 128 128 127 132 127 128 130 130 130 131 130 128 122 120 121 104 84 71 61 55 52 47 43 36 27 33 56 84 91 114 114 104 99 79 55 39 91 93 97 93 86 80 94 105 106 107 103
149 147 148 150 158 158 157 159 162 161 159 159 158 159 157 155 153 153 151 152 154 154 155 152 155 152 151 159 152 147 147 143 141 147 145 142 140 137 134 131 132 134 131 131 133 132 132 132 127 127 127 124 115 103 87 67 55 53 50 46 45 39 32 42 49 51 52 88 103 97 103 95 75 55 97 93 93 94 96 94 89 100 116 114 115
150 148 148 150 158 160 161 161 162 163 160 159 162 159 155 154 155 155 155 157 156 156 155 156 161 160 159 166 156 146 152 155 150 149 152 149 147 145 139 133 133 139 133 135 135 135 137 136 135 132 130 127 123 110 96 67 52 48 48 42 45 43 35 47 51 43 58 72 90 107 110 99 96 80 118 116 109 111 118 117 113 107 109 111 112
150 147 147 151 160 161 162 162 161 162 161 161 160 158 156 157 158 159 159 159 157 158 160 162 163 164 169 169 154 151 157 156 154 157 157 156 155 149 142 142 140 137 136 134 135 138 139 139 138 136 134 133 128 122 111 89 51 45 45 37 42 46 44 49 56 48 39 80 79 73 84 115 132 139 122 127 127 132 138 132 125 114 105 105 106
150 149 145 151 157 163 162 161 159 161 162 161 160 160 158 162 162 162 163 160 162 161 165 170 170 165 170 164 156 157 163 157 156 160 156 157 162 153 153 148 148 149 144 136 138 138 139 138 138 138 134 131 132 132 124 106 64 43 41 28 34 44 49 54 61 61 46 42 105 94 101 120 191 150 137 136 144 139 131 127 120 127 123 118 112
150 152 149 150 155 162 162 161 161 162 161 160 160 161 162 165 165 164 165 164 166 165 167 175 180 166 169 168 167 164 164 165 156 165 168 164 162 161 164 157 156 151 146 148 146 147 141 143 142 136 138 142 140 140 141 124 96 38 28 25 26 40 42 47 50 61 59 33 18 132 106 49 277 141 148 158 158 153 136 138 144 144 129 124 127
153 154 150 148 152 158 161 162 162 163 160 160 161 161 164 167 167 167 167 167 168 169 171 177 184 168 171 181 164 163 168 166 161 181 167 171 165 162 173 167 161 159 155 150 148 149 142 149 150 142 147 153 155 153 151 149 121 30 24 17 19 30 39 47 42 45 61 27 342 135 158 184 184 143 157 161 158 162 164 155 158 161 168 167 145
150 151 148 148 147 152 154 159 155 156 156 156 158 162 166 168 169 166 169 169 169 171 171 176 179 169 178 189 168 169 172 177 156 174 175 159 159 165 172 173 165 174 162 162 161 156 157 157 157 157 156 162 163 167 162 164 138 75 24 15 13 19 31 38 43 30 63 29 357 286 177 240 193 175 171 183 185 202 200 191 190 184 202 195 189
145 148 150 150 148 149 151 153 156 155 157 159 165 169 169 171 170 171 170 168 170 171 172 175 177 176 176 183 172 167 169 176 143 168 177 171 182 166 181 176 179 175 175 170 165 168 165 165 162 164 168 174 181 174 182 190 254 66 40 13 7 5 14 28 30 14 13 86 330 287 255 208 233 206 203 204 205 202 208 233 216 209 213 216 213
147 153 156 154 152 154 154 155 156 158 162 162 169 171 171 169 174 176 168 169 170 173 175 177 182 174 168 169 177 173 164 172 159 162 161 163 167 147 176 177 176 178 185 180 178 178 181 179 172 170 174 188 190 190 195 199 170 120 60 26 3 351 360 3 6 350 343 323 132 284 271 243 206 210 216 223 222 221 220 224 233 228 228 222 214
150 157 158 156 159 156 159 157 161 162 162 162 167 175 174 171 176 172 172 173 170 172 176 180 183 168 163 165 180 182 177 176 172 169 168 170 160 162 160 158 184 183 187 186 184 191 187 200 187 174 189 192 196 205 211 219 162 162 145 209 302 340 328 354 329 328 311 305 270 204 250 251 217 216 222 220 219 223 233 228 231 231 228 225 228
152 156 163 166 160 160 161 164 166 169 167 167 173 174 180 176 178 170 173 177 169 170 174 177 177 176 164 171 173 168 177 177 178 177 179 175 172 171 172 176 211 195 197 185 186 196 197 200 211 197 205 203 204 208 214 210 159 166 186 211 229 265 298 301 299 291 281 278 278 273 240 249 242 233 229 229 225 227 237 240 238 240 235 232 234
154 163 165 171 166 165 166 166 171 172 171 171 173 175 181 177 179 171 169 173 172 171 169 171 164 173 172 165 162 159 162 176 180 179 183 180 179 178 183 187 207 234 187 191 195 206 198 200 202 211 215 214 207 204 200 191 173 182 206 216 227 260 258 273 269 273 276 261 266 263 263 257 253 246 238 233 233 235 238 240 241 238 241 240 235
164 166 173 169 174 174 171 171 171 175 173 173 176 176 176 175 173 173 164 166 169 173 172 170 165 158 173 165 157 159 158 164 174 179 181 186 185 186 190 194 200 211 202 211 195 203 199 206 205 209 214 219 203 195 195 200 190 201 210 222 207 234 255 251 255 257 262 262 255 254 257 257 255 248 241 236 235 239 241 242 241 240 238 239 239
170 170 175 175 176 176 180 175 176 175 174 176 178 178 174 175 173 171 165 161 155 169 167 176 171 168 172 175 169 169 168 171 176 181 184 189 189 194 194 200 201 203 203 207 205 192 200 212 217 211 212 208 199 183 190 204 213 215 219 222 208 234 251 257 253 254 255 255 254 254 256 257 259 251 241 238 238 242 243 242 241 240 238 238 240
173 176 173 177 175 176 181 181 179 176 175 178 177 175 175 176 178 175 170 171 162 159 164 181 182 182 177 180 178 177 177 180 192 191 189 188 198 198 200 201 205 205 204 204 207 201 202 211 221 220 215 201 173 183 188 199 211 225 236 225 211 229 240 250 255 253 254 258 256 257 261 262 260 253 247 245 245 245 245 242 241 241 240 239 239
173 165 167 179 181 177 176 183 181 178 178 178 178 179 174 174 182 183 178 174 172 179 181 188 190 190 187 183 184 181 185 189 192 194 191 194 195 197 205 207 208 211 208 202 204 208 206 213 224 225 213 192 181 187 189 202 211 214 226 230 231 234 235 243 252 254 251 247 251 254 261 264 262 254 247 249 251 250 247 244 242 241 242 241 239
151 169 178 177 183 181 178 180 181 182 183 181 181 179 174 180 181 185 184 184 181 183 186 191 193 197 195 192 183 186 194 195 196 196 198 196 196 200 202 201 203 209 204 201 201 202 210 208 211 218 224 211 202 197 198 197 204 215 222 227 232 234 234 238 241 248 247 243 243 241 248 255 256 256 253 252 251 251 249 247 245 243 242 242 241
172 182 178 181 179 180 181 176 183 184 187 184 183 178 183 183 182 182 179 187 191 191 195 194 194 198 199 197 196 199 202 204 204 201 205 198 203 203 205 202 203 205 201 197 201 202 204 207 210 216 214 215 218 213 210 215 211 213 218 224 230 234 232 236 239 242 244 240 240 240 244 251 255 254 252 255 255 254 252 251 249 246 245 243 243
175 179 179 180 180 183 180 177 184 184 188 186 184 183 186 184 184 182 189 185 183 192 193 192 196 199 199 196 196 201 205 210 210 207 209 201 211 206 205 208 208 207 197 198 201 205 209 212 214 221 220 223 223 221 221 219 220 215 222 224 228 233 227 233 238 239 238 237 236 236 237 241 246 253 256 255 256 256 254 252 252 250 248 246 244
184 183 180 180 188 184 178 182 183 186 187 185 190 188 186 187 184 184 193 186 190 194 195 195 200 201 202 198 192 200 205 209 211 210 202 209 211 209 206 210 207 208 192 206 205 206 212 211 215 219 219 225 226 231 225 232 227 221 221 228 227 230 230 232 234 237 235 235 235 237 234 236 239 246 253 258 259 257 256 254 253 253 252 249 248
193 185 180 187 182 182 183 185 185 186 185 184 192 189 187 189 190 191 195 187 196 195 193 198 203 198 202 205 200 200 201 205 212 208 201 210 209 211 210 209 205 204 195 205 206 209 210 210 217 220 219 223 226 228 221 233 233 231 224 227 226 224 225 228 233 233 234 235 238 240 240 239 241 239 247 254 258 260 259 257 256 254 253 252 249
188 191 191 188 181 182 190 188 187 185 184 188 190 193 189 193 192 192 192 193 196 195 196 200 202 201 202 200 202 203 202 204 207 207 205 207 208 209 213 207 208 205 197 208 202 208 209 207 208 212 215 217 224 221 217 227 232 233 230 226 230 223 228 228 231 235 238 241 243 245 246 245 245 247 246 250 254 257 258 260 258 256 255 254 252
192 197 194 186 183 191 189 189 188 185 187 191 188 193 194 195 192 192 196 195 191 197 199 199 202 204 203 201 202 203 204 208 206 209 205 205 209 210 210 204 211 204 201 207 206 208 210 213 211 212 216 214 221 221 219 222 230 232 230 232 230 226 226 226 229 233 239 242 245 249 250 250 247 248 250 250 252 254 256 258 259 259 258 256 255
201 197 191 185 192 191 190 190 187 187 190 192 190 193 194 196 193 195 196 193 194 198 200 201 202 203 203 203 203 203 205 208 210 212 208 209 209 209 209 209 205 202 201 207 210 208 213 218 221 215 222 225 228 232 229 230 233 233 229 232 226 230 226 224 229 234 239 242 246 250 252 249 250 251 250 251 252 252 254 256 258 259 259 258 257
194 194 188 195 193 192 193 188 189 190 194 193 190 192 194 196 196 195 193 192 197 199 204 204 202 203 203 206 206 205 205 209 207 211 206 205 208 211 210 209 202 202 204 204 209 206 212 213 218 213 222 220 226 227 225 234 236 238 235 236 234 235 233 237 232 236 238 243 245 249 249 248 248 247 249 250 249 251 252 253 255 257 258 258 257
193 192 192 195 190 192 189 196 192 192 191 195 193 194 191 193 194 195 194 194 195 200 202 203 204 205 203 209 208 209 209 209 209 207 209 204 204 208 212 210 200 199 202 204 204 209 209 213 207 216 223 228 230 227 223 232 230 233 233 236 243 243 244 245 242 244 240 244 242 247 246 249 248 247 248 248 249 248 248 250 252 254 256 256 256
195 195 194 188 193 193 192 196 189 194 196 197 195 194 194 192 194 196 195 197 200 202 202 201 201 202 204 207 209 212 211 212 212 210 212 209 208 210 209 199 197 198 207 205 205 211 207 214 211 204 213 230 226 238 226 239 238 246 240 238 243 242 245 247 246 246 244 245 247 248 245 246 245 246 245 246 248 247 244 245 246 250 252 253 254
195 190 190 191 195 194 192 195 194 196 195 196 195 195 192 196 196 196 198 196 203 206 207 204 208 207 203 207 205 208 214 213 212 211 216 214 214 216 208 202 196 200 203 206 210 210 205 213 216 213 214 228 218 236 232 232 243 245 245 245 242 240 245 244 245 244 244 242 247 245 246 246 244 244 243 245 247 250 248 243 245 247 247 249 251
196 193 191 190 193 193 195 198 197 196 195 194 195 195 196 195 195 198 199 203 209 210 209 206 213 215 214 217 205 204 210 214 212 211 219 220 216 216 207 202 200 206 212 212 219 204 211 208 226 214 215 227 234 230 236 233 238 246 245 242 243 237 244 246 245 246 243 249 246 244 242 243 241 240 241 242 243 247 251 247 245 246 248 248 249
194 194 193 193 190 192 192 198 197 195 196 194 193 194 191 194 194 194 203 212 214 214 209 213 216 214 219 220 215 212 207 209 211 210 214 218 220 217 210 198 195 202 209 218 223 216 215 215 224 228 214 223 231 227 227 221 237 247 250 248 243 243 246 246 248 246 244 245 248 249 248 245 243 242 241 239 241 245 247 249 247 246 248 245 247
191 189 193 192 194 191 192 194 197 193 191 189 184 189 186 193 198 202 212 216 214 214 213 217 212 216 220 218 219 219 213 209 210 209 214 216 219 218 212 194 199 196 206 215 221 215 219 222 231 228 234 238 234 236 219 218 252 256 259 263 252 254 252 246 247 247 248 246 248 248 247 249 245 249 245 242 243 245 246 250 248 250 252 249 244
193 187 190 196 195 194 186 196 194 186 185 186 189 188 191 196 203 206 213 212 213 211 216 219 216 218 217 217 219 219 218 212 211 206 216 216 219 216 210 207 197 200 208 218 211 213 214 216 225 212 224 235 244 218 222 174 247 273 257 267 272 250 250 248 251 251 248 249 247 246 248 248 246 250 248 243 244 246 250 250 251 252 253 257 255
200 194 195 199 197 192 193 198 184 190 192 191 191 194 196 196 193 202 203 206 204 204 215 214 216 217 215 217 218 220 217 216 211 209 215 214 218 216 213 212 201 207 213 214 208 206 205 209 204 231 214 224 242 203 197 133 230 243 287 300 286 276 244 237 243 249 250 251 246 243 247 246 250 251 251 246 244 246 250 252 253 253 254 255 255
195 194 201 197 193 195 202 193 192 193 196 193 189 200 200 200 198 207 202 210 217 217 220 220 217 219 218 217 219 219 218 219 213 210 215 215 217 215 216 211 208 206 210 217 213 214 208 208 201 216 226 225 247 226 192 180 239 164 213 322 292 332 333 304 264 260 255 251 244 244 245 248 253 252 253 252 249 250 249 248 252 252 254 252 255
195 200 201 197 195 199 201 195 198 198 195 196 199 202 197 198 206 201 203 199 200 214 220 222 219 217 224 219 222 219 218 219 212 211 214 216 214 215 215 210 212 205 208 216 215 222 216 214 212 219 219 242 223 245 184 193 202 129 271 217 241 94 306 297 313 278 235 245 245 250 245 253 258 256 257 252 254 252 250 245 250 250 252 251 253
195 197 196 195 197 200 201 197 197 197 197 197 199 191 176 182 186 127 104 193 265 189 208 231 219 217 223 221 223 216 218 218 214 211 210 216 214 215 214 214 212 208 208 216 219 221 218 218 215 218 212 226 244 237 214 193 206 202 199 96 341 330 234 270 335 285 0 275 244 237 240 250 251 257 252 258 257 253 254 253 248 249 249 250 249
199 200 197 197 197 202 201 198 198 198 200 199 194 178 185 186 177 189 199 203 211 203 212 216 208 208 215 218 219 215 214 217 215 213 212 213 216 215 215 215 214 211 210 217 222 220 219 218 215 215 222 218 233 245 241 204 213 210 223 231 197 206 265 262 1 295 309 220 256 229 267 241 253 259 249 259 255 255 246 256 250 249 247 245 246
205 201 199 200 201 202 199 195 196 198 199 196 183 182 187 193 196 200 204 201 206 217 220 220 211 218 220 219 220 211 211 213 216 214 214 212 216 216 216 217 217 215 211 214 221 221 221 219 209 212 221 214 211 238 240 209 214 239 227 238 249 254 198 329 278 345 315 328 212 270 266 240 247 243 250 244 248 256 253 245 256 252 250 243 242
205 202 201 200 201 203 197 196 198 198 195 188 181 187 192 196 201 208 210 211 213 223 216 215 210 214 215 222 217 215 212 209 211 211 212 210 212 216 214 214 216 216 205 215 222 222 221 222 210 217 219 213 212 227 243 203 208 236 190 232 245 257 261 261 248 255 274 300 299 257 216 247 232 247 237 239 241 245 257 255 252 257 254 249 240
205 201 198 200 202 202 199 195 197 196 196 189 188 193 198 198 200 204 210 217 220 229 225 211 211 211 218 222 217 220 214 213 212 210 207 208 208 213 210 212 214 215 207 221 224 218 219 218 213 214 217 220 218 229 238 234 203 236 165 226 231 242 244 238 253 222 236 272 275 289 292 211 237 266 254 235 252 249 254 259 258 258 263 260 247
210 205 203 202 201 198 196 194 199 199 199 194 193 197 200 200 203 206 210 217 219 230 222 209 208 200 217 219 215 216 213 212 215 214 212 209 208 209 210 211 213 211 210 220 221 219 220 219 217 215 217 223 219 219 228 236 226 228 216 198 207 227 236 247 235 227 235 221 250 277 287 300 299 277 230 231 235 249 250 255 259 258 258 259 256
212 207 205 203 201 199 198 198 203 203 201 199 194 199 201 202 206 207 211 216 217 219 219 218 209 202 214 218 211 214 207 212 210 216 216 213 214 207 208 213 210 209 214 218 221 219 219 217 215 214 217 220 221 220 226 233 233 229 223 215 225 213 219 227 227 209 216 226 245 248 266 271 272 294 291 181 222 254 248 250 255 253 251 255 256